[[{"header":{"parameterUnit":"m.s-1","parameterCategory":2,"la1":30.2992,"la2":30.254,"lo1":-89.0895,"lo2":-89.0443,"dy":0.0025,"dx":0.0025,"nx":19,"ny":19,"refTime":"2026-03-12T21:00:00:Z","depth":"0","parameterNumber":2,"parameterNumberName":"U-component_of_CURRENTS"},"data":[0,0,0,-0.1708,-0.1709,-0.1749,-0.1749,-0.1773,-0.1773,0,0,0,0,0,0,0,0,0,0,0,-0.1685,-0.1685,-0.1708,-0.1709,-0.1749,-0.1749,-0.1773,-0.1773,0,0,0,0,0,0,0,0,0,0,0,-0.1685,-0.1685,-0.1685,-0.171,-0.1749,-0.1749,-0.1773,-0.1749,0,0,0,0,0,0,0,0,0,0,-0.1713,-0.1692,-0.1685,-0.1685,-0.171,-0.1749,-0.1749,-0.1748,-0.175,-0.1749,0,-0.1753,0,-0.177,-0.1775,-0.1775,0,0,0,-0.1704,-0.169,-0.1708,-0.1685,-0.171,-0.1749,-0.173,-0.1749,-0.1752,-0.1752,-0.1753,-0.1755,-0.177,-0.1775,-0.1775,-0.1796,-0.1796,0,0,-0.1702,-0.1686,-0.1706,-0.171,-0.1717,-0.1728,-0.1731,-0.1751,-0.1747,-0.1754,-0.1756,-0.177,-0.1775,-0.1775,-0.1796,-0.1796,0,0,0,-0.1699,-0.1684,-0.1702,-0.1708,-0.1721,-0.173,-0.1733,-0.1746,-0.1754,-0.1756,-0.1771,-0.1775,-0.1775,-0.1796,-0.1796,-0.18,0,0,0,-0.1698,-0.1683,-0.1701,-0.169,-0.1721,-0.1737,-0.1727,-0.1753,-0.1756,-0.1771,-0.1775,-0.1776,-0.1796,-0.1796,-0.18,-0.1799,0,0,0,-0.1684,-0.1682,-0.1687,-0.169,-0.1711,-0.1738,-0.1747,-0.1754,-0.1765,-0.1775,-0.1776,-0.1796,-0.1796,-0.18,-0.1799,-0.1776,0,0,0,-0.1665,-0.1681,-0.1686,-0.1713,-0.1711,-0.1758,-0.1747,-0.1776,-0.1788,-0.1775,-0.1796,-0.1796,-0.18,-0.1799,-0.1777,-0.1642,-0.163,0,0,-0.168,-0.1682,-0.1702,-0.1709,-0.1752,-0.1752,-0.1785,-0.1791,-0.1787,-0.1787,-0.1787,-0.18,-0.1799,-0.1776,-0.1652,-0.1639,0,0,0,-0.1705,-0.171,-0.1728,-0.1751,-0.1785,-0.1795,-0.1809,-0.1803,-0.1798,-0.1795,-0.1802,-0.1801,-0.1787,-0.1706,-0.1697,-0.1599,-0.1797,-0.1797,-0.1797,-0.1679,-0.1713,-0.1739,-0.1774,-0.18,-0.1825,-0.1827,-0.1817,-0.1818,-0.181,-0.1806,-0.1795,-0.171,-0.1701,-0.1603,-0.181,-0.181,-0.181,-0.181,-0.1685,-0.169,-0.1732,-0.1767,-0.179,-0.1811,-0.1828,-0.1823,-0.1807,-0.1809,-0.1794,-0.1717,-0.169,-0.159,-0.181,-0.181,-0.181,-0.181,-0.181,-0.1647,-0.1652,-0.1684,-0.1722,-0.1751,-0.1789,-0.1792,-0.1808,-0.1803,-0.1799,-0.169,-0.1688,-0.1596,-0.1784,-0.1784,-0.1784,-0.1784,-0.1784,-0.1784,-0.1579,-0.1615,-0.1622,-0.1673,-0.1687,-0.172,-0.1762,-0.176,-0.1712,-0.1678,-0.1677,-0.1567,-0.1787,-0.1784,-0.1782,-0.1782,-0.1783,-0.1783,-0.1783,-0.1506,-0.1526,-0.1531,-0.1546,-0.1588,-0.1559,-0.1646,-0.1589,-0.1595,-0.1536,-0.14,-0.1604,-0.1584,-0.159,-0.1581,-0.1528,-0.1528,-0.1528,-0.1528,-0.1432,-0.1453,-0.1428,-0.143,-0.1444,-0.1473,-0.1372,-0.1342,-0.1269,-0.1191,-0.1244,-0.1209,-0.1223,-0.1182,-0.1197,-0.1181,-0.1028,-0.1027,-0.1027,-0.1361,-0.1375,-0.1319,-0.1344,-0.1359,-0.1342,-0.1182,-0.1041,-0.097,-0.1003,-0.1137,-0.1158,-0.1109,-0.114,-0.1081,-0.111,-0.1086,0,0]},{"header":{"parameterUnit":"m.s-1","parameterCategory":2,"la1":30.2992,"la2":30.254,"lo1":-89.0895,"lo2":-89.0443,"dy":0.0025,"dx":0.0025,"nx":19,"ny":19,"refTime":"2026-03-12T21:00:00:Z","depth":"0","parameterNumber":3,"parameterNumberName":"V-component_of_CURRENTS"},"data":[0,0,0,-0.0238,-0.0237,-0.0184,-0.0184,-0.0086,-0.0085,0,0,0,0,0,0,0,0,0,0,0,-0.0255,-0.0255,-0.0238,-0.0237,-0.0184,-0.0184,-0.0086,-0.0085,0,0,0,0,0,0,0,0,0,0,0,-0.0255,-0.0255,-0.0254,-0.0237,-0.0184,-0.0184,-0.0086,-0.0131,0,0,0,0,0,0,0,0,0,0,-0.0184,-0.0213,-0.0255,-0.0254,-0.0236,-0.0185,-0.0184,-0.0133,-0.0128,-0.0105,0,-0.0104,0,-0.0097,-0.0079,-0.0079,0,0,0,-0.0225,-0.0217,-0.0201,-0.0254,-0.0236,-0.0185,-0.0205,-0.013,-0.0124,-0.0098,-0.0103,-0.0099,-0.0095,-0.0078,-0.0078,-0.0024,-0.0024,0,0,-0.0228,-0.0242,-0.0206,-0.0198,-0.0231,-0.0206,-0.0203,-0.0127,-0.0125,-0.0102,-0.0097,-0.0094,-0.0078,-0.0077,-0.0023,-0.0024,0,0,0,-0.0244,-0.0245,-0.0231,-0.0202,-0.0198,-0.0205,-0.0201,-0.0128,-0.0124,-0.0096,-0.0093,-0.0077,-0.0076,-0.0023,-0.0023,-0.0081,0,0,0,-0.0245,-0.0255,-0.0233,-0.0241,-0.02,-0.0168,-0.0204,-0.0129,-0.012,-0.0093,-0.0077,-0.0075,-0.0023,-0.0023,-0.0079,-0.0114,0,0,0,-0.0256,-0.0256,-0.0253,-0.0242,-0.0224,-0.0169,-0.016,-0.0127,-0.0118,-0.0079,-0.0075,-0.0023,-0.0023,-0.0077,-0.011,-0.0081,0,0,0,-0.0268,-0.0281,-0.0253,-0.0267,-0.0225,-0.0207,-0.016,-0.0137,-0.0108,-0.0077,-0.0023,-0.0023,-0.0077,-0.0108,-0.008,-0.0006,-0.0006,0,0,-0.0295,-0.0285,-0.0294,-0.0268,-0.0273,-0.0213,-0.0205,-0.0146,-0.0101,-0.0043,-0.0042,-0.008,-0.011,-0.0081,-0.002,-0.0019,0,0,0,-0.031,-0.0319,-0.0315,-0.0311,-0.0281,-0.0251,-0.0192,-0.0159,-0.0108,-0.0087,-0.0068,-0.0085,-0.0065,-0.0018,-0.0017,0.0105,-0.0025,-0.0025,-0.0024,-0.036,-0.035,-0.0369,-0.0352,-0.0334,-0.0273,-0.0241,-0.0182,-0.0136,-0.0123,-0.0123,-0.0132,-0.0083,-0.0081,0.0042,-0.0107,-0.0108,-0.0108,-0.0108,-0.0418,-0.0435,-0.0415,-0.0432,-0.0388,-0.0368,-0.0285,-0.0244,-0.0184,-0.0161,-0.0137,-0.0071,-0.0084,0.0048,-0.0111,-0.0111,-0.011,-0.011,-0.011,-0.0461,-0.047,-0.0476,-0.0494,-0.0481,-0.0426,-0.0391,-0.0324,-0.0239,-0.0226,-0.0121,-0.0119,-0.0006,-0.0197,-0.0197,-0.0197,-0.0197,-0.0197,-0.0197,-0.0505,-0.0511,-0.0548,-0.0557,-0.0565,-0.0543,-0.0452,-0.0388,-0.0255,-0.0177,-0.0175,0.0012,-0.0158,-0.0158,-0.0198,-0.0198,-0.0197,-0.0197,-0.0197,-0.0564,-0.0563,-0.0624,-0.0646,-0.0661,-0.063,-0.0539,-0.0346,-0.0259,-0.0166,0.0062,-0.0122,-0.0086,-0.0085,-0.0083,-0.01,-0.01,-0.01,-0.01,-0.0598,-0.0605,-0.0683,-0.0727,-0.0745,-0.0673,-0.0516,-0.0292,-0.0001,0.0149,0.0169,0.0212,0.0203,0.0258,0.0251,0.0262,0.0332,0.0333,0.0333,-0.0634,-0.0658,-0.0714,-0.0757,-0.0782,-0.0696,-0.0499,-0.0127,0.0271,0.0361,0.0322,0.0303,0.0375,0.0351,0.0442,0.0423,0.0442,0,0]}],[{"header":{"parameterUnit":"m.s-1","parameterCategory":2,"la1":30.2992,"la2":30.254,"lo1":-89.0895,"lo2":-89.0443,"dy":0.0025,"dx":0.0025,"nx":19,"ny":19,"refTime":"2026-03-12T21:00:00:Z","depth":"2","parameterNumber":2,"parameterNumberName":"U-component_of_CURRENTS"},"data":[0,0,0,-0.155,-0.1551,-0.1583,-0.1583,-0.1608,-0.1609,0,0,0,0,0,0,0,0,0,0,0,-0.1534,-0.1534,-0.155,-0.1551,-0.1583,-0.1583,-0.1608,-0.1609,0,0,0,0,0,0,0,0,0,0,0,-0.1534,-0.1534,-0.1534,-0.1551,-0.1583,-0.1583,-0.1608,-0.1588,0,0,0,0,0,0,0,0,0,0,-0.1559,-0.1544,-0.1534,-0.1534,-0.1552,-0.1583,-0.1583,-0.1587,-0.1589,-0.159,0,-0.1593,0,-0.1604,-0.161,-0.161,0,0,0,-0.155,-0.1542,-0.1554,-0.1534,-0.1552,-0.1583,-0.1568,-0.1588,-0.1591,-0.1593,-0.1594,-0.1595,-0.1605,-0.161,-0.161,-0.1639,-0.1639,0,0,-0.1548,-0.1537,-0.1553,-0.1556,-0.1557,-0.1567,-0.1569,-0.159,-0.1588,-0.1594,-0.1596,-0.1605,-0.161,-0.1611,-0.1639,-0.1639,0,0,0,-0.1544,-0.1535,-0.1547,-0.1554,-0.1563,-0.1568,-0.157,-0.1587,-0.1592,-0.1596,-0.1606,-0.1611,-0.1611,-0.1639,-0.1639,-0.1649,0,0,0,-0.1543,-0.1533,-0.1547,-0.154,-0.1563,-0.1577,-0.1567,-0.1591,-0.1594,-0.1605,-0.1611,-0.1611,-0.1638,-0.1639,-0.1648,-0.1648,0,0,0,-0.1533,-0.1532,-0.1536,-0.1539,-0.1555,-0.1577,-0.1584,-0.1592,-0.16,-0.161,-0.1611,-0.1638,-0.1639,-0.1648,-0.1647,-0.1629,0,0,0,-0.1521,-0.1529,-0.1535,-0.1553,-0.1554,-0.1591,-0.1584,-0.1609,-0.1621,-0.1611,-0.1638,-0.1639,-0.1647,-0.1647,-0.1629,-0.1497,-0.1486,0,0,-0.1527,-0.153,-0.1544,-0.155,-0.1582,-0.1587,-0.1617,-0.1626,-0.1624,-0.163,-0.1631,-0.1648,-0.1647,-0.1629,-0.1517,-0.1505,0,0,0,-0.1544,-0.1547,-0.1561,-0.1579,-0.1608,-0.1623,-0.1638,-0.1638,-0.1644,-0.1633,-0.1652,-0.1652,-0.164,-0.156,-0.1551,-0.164,-0.164,-0.164,-0.164,-0.1522,-0.1548,-0.1567,-0.1597,-0.1621,-0.165,-0.166,-0.1661,-0.1662,-0.1664,-0.1663,-0.1661,-0.1577,-0.1569,-0.1669,-0.1669,-0.1669,-0.1669,-0.1669,-0.152,-0.1522,-0.1561,-0.1588,-0.1617,-0.1642,-0.1671,-0.1674,-0.1673,-0.1674,-0.1662,-0.1579,-0.1559,-0.167,-0.167,-0.167,-0.167,-0.167,-0.1669,-0.1486,-0.1488,-0.1517,-0.155,-0.1585,-0.1628,-0.1641,-0.1668,-0.1673,-0.1674,-0.1566,-0.1564,-0.1653,-0.1661,-0.1661,-0.1661,-0.1661,-0.1661,-0.1661,-0.1426,-0.1457,-0.1462,-0.1509,-0.1526,-0.1564,-0.1618,-0.1622,-0.1586,-0.156,-0.1559,-0.1657,-0.1658,-0.1652,-0.166,-0.166,-0.166,-0.166,-0.166,-0.1357,-0.1378,-0.1379,-0.1395,-0.1437,-0.1411,-0.1502,-0.1458,-0.1471,-0.1418,-0.1485,-0.149,-0.1468,-0.1473,-0.1462,-0.142,-0.142,-0.142,-0.142,-0.1293,-0.1311,-0.1288,-0.129,-0.1304,-0.1331,-0.1232,-0.1201,-0.123,-0.1219,-0.1228,-0.1201,-0.1214,-0.1178,-0.119,-0.1174,-0.1057,-0.1056,-0.1056,-0.1231,-0.1241,-0.1192,-0.1212,-0.1226,-0.1204,-0.1044,-0.0888,-0.0897,-0.1045,-0.1204,-0.1388,-0.1371,-0.1383,-0.1347,-0.1359,-0.1341,0,0]},{"header":{"parameterUnit":"m.s-1","parameterCategory":2,"la1":30.2992,"la2":30.254,"lo1":-89.0895,"lo2":-89.0443,"dy":0.0025,"dx":0.0025,"nx":19,"ny":19,"refTime":"2026-03-12T21:00:00:Z","depth":"2","parameterNumber":3,"parameterNumberName":"V-component_of_CURRENTS"},"data":[0,0,0,-0.0321,-0.0321,-0.0286,-0.0285,-0.021,-0.021,0,0,0,0,0,0,0,0,0,0,0,-0.0332,-0.0332,-0.0321,-0.0321,-0.0286,-0.0285,-0.021,-0.021,0,0,0,0,0,0,0,0,0,0,0,-0.0332,-0.0332,-0.0332,-0.0321,-0.0286,-0.0285,-0.021,-0.0242,0,0,0,0,0,0,0,0,0,0,-0.0279,-0.03,-0.0332,-0.0332,-0.0321,-0.0286,-0.0285,-0.0244,-0.024,-0.0221,0,-0.0221,0,-0.0218,-0.0205,-0.0204,0,0,0,-0.0311,-0.0303,-0.0292,-0.0332,-0.032,-0.0286,-0.0299,-0.0242,-0.0238,-0.0215,-0.022,-0.0217,-0.0216,-0.0204,-0.0204,-0.0156,-0.0156,0,0,-0.0313,-0.0324,-0.0296,-0.029,-0.0318,-0.03,-0.0298,-0.024,-0.0238,-0.022,-0.0216,-0.0215,-0.0204,-0.0203,-0.0156,-0.0156,0,0,0,-0.0325,-0.0325,-0.0316,-0.0293,-0.0291,-0.0299,-0.0297,-0.0241,-0.0238,-0.0215,-0.0214,-0.0203,-0.0202,-0.0156,-0.0156,-0.0205,0,0,0,-0.0326,-0.0333,-0.0317,-0.0323,-0.0293,-0.0271,-0.0299,-0.0241,-0.0235,-0.0215,-0.0203,-0.0202,-0.0156,-0.0156,-0.0203,-0.0235,0,0,0,-0.0332,-0.0333,-0.0331,-0.0323,-0.0313,-0.0272,-0.0265,-0.024,-0.0235,-0.0204,-0.0202,-0.0156,-0.0156,-0.0202,-0.0232,-0.0213,0,0,0,-0.0341,-0.0356,-0.0332,-0.0349,-0.0313,-0.0306,-0.0265,-0.0252,-0.0231,-0.0203,-0.0156,-0.0156,-0.0202,-0.0231,-0.0212,-0.017,-0.0171,0,0,-0.0368,-0.0359,-0.0371,-0.0349,-0.0362,-0.031,-0.0308,-0.0262,-0.0222,-0.0171,-0.017,-0.0204,-0.0232,-0.0213,-0.0173,-0.0174,0,0,0,-0.0385,-0.0395,-0.0394,-0.0395,-0.0375,-0.0351,-0.0303,-0.0273,-0.0226,-0.0211,-0.0191,-0.0207,-0.0193,-0.0165,-0.0166,-0.0157,-0.0157,-0.0157,-0.0157,-0.043,-0.0426,-0.0448,-0.0437,-0.0425,-0.0374,-0.0346,-0.0291,-0.0252,-0.0236,-0.0237,-0.0245,-0.0216,-0.0216,-0.0219,-0.022,-0.022,-0.022,-0.022,-0.0486,-0.0505,-0.049,-0.0511,-0.0474,-0.0459,-0.0383,-0.0345,-0.0288,-0.0265,-0.0248,-0.0207,-0.022,-0.0224,-0.0223,-0.0222,-0.0222,-0.0222,-0.0222,-0.0525,-0.0535,-0.0544,-0.0566,-0.0557,-0.051,-0.048,-0.0414,-0.0338,-0.0325,-0.0254,-0.0252,-0.027,-0.0304,-0.0304,-0.0304,-0.0304,-0.0304,-0.0305,-0.0564,-0.0573,-0.0609,-0.0621,-0.0632,-0.0614,-0.0535,-0.0481,-0.0371,-0.0305,-0.0303,-0.0272,-0.027,-0.0273,-0.0305,-0.0305,-0.0305,-0.0305,-0.0305,-0.0619,-0.0618,-0.0677,-0.0699,-0.0719,-0.0698,-0.0621,-0.047,-0.0397,-0.0326,-0.027,-0.027,-0.0244,-0.0242,-0.0244,-0.0266,-0.0266,-0.0266,-0.0266,-0.065,-0.0656,-0.073,-0.0774,-0.0795,-0.0739,-0.0627,-0.0449,-0.0296,-0.0227,-0.0229,-0.0209,-0.0211,-0.0182,-0.0181,-0.0181,-0.0187,-0.0187,-0.0187,-0.0683,-0.0705,-0.0758,-0.08,-0.083,-0.0764,-0.0624,-0.0357,-0.0157,-0.0186,-0.0234,-0.0257,-0.0232,-0.0234,-0.019,-0.0189,-0.0188,0,0]}],[{"header":{"parameterUnit":"m.s-1","parameterCategory":2,"la1":30.2992,"la2":30.254,"lo1":-89.0895,"lo2":-89.0443,"dy":0.0025,"dx":0.0025,"nx":19,"ny":19,"refTime":"2026-03-12T21:00:00:Z","depth":"4","parameterNumber":2,"parameterNumberName":"U-component_of_CURRENTS"},"data":[0,0,0,-0.1136,-0.1138,-0.1212,-0.1212,-0.1268,-0.1269,0,0,0,0,0,0,0,0,0,0,0,-0.1114,-0.1114,-0.1136,-0.1138,-0.1212,-0.1212,-0.1268,-0.1269,0,0,0,0,0,0,0,0,0,0,0,-0.1114,-0.1114,-0.1115,-0.1138,-0.1212,-0.1212,-0.1268,-0.1222,0,0,0,0,0,0,0,0,0,0,-0.1155,-0.1143,-0.1114,-0.1115,-0.1138,-0.1212,-0.1212,-0.1221,-0.1225,-0.1223,0,-0.1239,0,-0.1252,-0.1271,-0.1271,0,0,0,-0.114,-0.114,-0.1155,-0.1115,-0.1139,-0.1212,-0.1179,-0.1224,-0.1229,-0.1229,-0.124,-0.1242,-0.1253,-0.1272,-0.1272,-0.1326,-0.1326,0,0,-0.1136,-0.1131,-0.1152,-0.1158,-0.1163,-0.1177,-0.1181,-0.1227,-0.1236,-0.124,-0.1243,-0.1254,-0.1272,-0.1272,-0.1325,-0.1326,0,0,0,-0.1123,-0.1128,-0.1143,-0.1156,-0.1171,-0.1179,-0.1184,-0.1234,-0.1239,-0.1244,-0.1254,-0.1272,-0.1273,-0.1325,-0.1325,-0.1344,0,0,0,-0.112,-0.112,-0.1141,-0.1139,-0.117,-0.121,-0.119,-0.1236,-0.1241,-0.1254,-0.1272,-0.1273,-0.1325,-0.1325,-0.1343,-0.1343,0,0,0,-0.1109,-0.1119,-0.1128,-0.1139,-0.1169,-0.1209,-0.1217,-0.1237,-0.1247,-0.1271,-0.1273,-0.1324,-0.1325,-0.1342,-0.1342,-0.1332,0,0,0,-0.11,-0.1112,-0.1128,-0.1151,-0.1168,-0.1212,-0.1217,-0.1258,-0.1282,-0.1272,-0.1325,-0.1325,-0.1341,-0.1341,-0.1332,-0.1153,0,0,0,-0.1105,-0.1113,-0.1126,-0.1142,-0.1177,-0.1202,-0.1246,-0.1281,-0.1289,-0.1306,-0.1308,-0.1343,-0.1341,-0.1332,-0.1196,0,0,0,0,-0.1121,-0.1129,-0.1144,-0.1172,-0.1207,-0.1245,-0.1281,-0.1296,-0.1331,-0.1306,-0.1352,-0.1351,-0.1344,-0.1239,-0.1329,-0.1329,-0.1329,-0.1329,-0.1329,-0.1108,-0.1131,-0.1155,-0.119,-0.1225,-0.128,-0.1311,-0.1339,-0.1347,-0.1368,-0.1373,-0.1388,-0.1279,-0.1385,-0.1385,-0.1385,-0.1385,-0.1385,-0.1385,-0.1101,-0.1106,-0.1158,-0.1191,-0.1242,-0.1287,-0.1342,-0.1362,-0.1392,-0.1396,-0.1389,-0.1275,-0.1387,-0.1387,-0.1387,-0.1386,-0.1386,-0.1386,-0.1386,-0.107,-0.1073,-0.1116,-0.1168,-0.1229,-0.1293,-0.1322,-0.1376,-0.1401,-0.1411,-0.1283,-0.1393,-0.1381,-0.1406,-0.1406,-0.1406,-0.1406,-0.1406,-0.1406,-0.1008,-0.1048,-0.1073,-0.1141,-0.1178,-0.1234,-0.1314,-0.1321,-0.1363,-0.1279,-0.1412,-0.1394,-0.1394,-0.1383,-0.1406,-0.1406,-0.1406,-0.1406,-0.1406,-0.0938,-0.0973,-0.0994,-0.103,-0.11,-0.1125,-0.1231,-0.1199,-0.1187,-0.1137,-0.1199,-0.1209,-0.118,-0.1184,-0.1164,-0.1124,-0.1121,-0.1119,0,-0.0882,-0.0903,-0.0917,-0.094,-0.0957,-0.1045,-0.0989,-0.1017,-0.1042,-0.1005,-0.119,-0.1262,-0.1268,-0.1238,-0.1238,-0.1215,0,0,0,-0.0831,-0.0845,-0.0827,-0.0865,-0.0877,-0.0885,-0.0962,-0.0917,-0.1053,-0.0978,-0.1063,-0.1078,-0.1285,-0.1405,-0.1383,-0.1383,-0.1363,0,0]},{"header":{"parameterUnit":"m.s-1","parameterCategory":2,"la1":30.2992,"la2":30.254,"lo1":-89.0895,"lo2":-89.0443,"dy":0.0025,"dx":0.0025,"nx":19,"ny":19,"refTime":"2026-03-12T21:00:00:Z","depth":"4","parameterNumber":3,"parameterNumberName":"V-component_of_CURRENTS"},"data":[0,0,0,-0.0255,-0.0255,-0.025,-0.025,-0.0208,-0.0208,0,0,0,0,0,0,0,0,0,0,0,-0.0256,-0.0256,-0.0255,-0.0255,-0.025,-0.025,-0.0208,-0.0208,0,0,0,0,0,0,0,0,0,0,0,-0.0256,-0.0256,-0.0257,-0.0255,-0.025,-0.025,-0.0209,-0.022,0,0,0,0,0,0,0,0,0,0,-0.0229,-0.0241,-0.0256,-0.0257,-0.0255,-0.025,-0.025,-0.022,-0.0219,-0.0203,0,-0.0208,0,-0.021,-0.0205,-0.0205,0,0,0,-0.0248,-0.0243,-0.0238,-0.0257,-0.0255,-0.025,-0.025,-0.022,-0.0218,-0.0201,-0.0208,-0.0206,-0.0209,-0.0205,-0.0205,-0.0174,-0.0174,0,0,-0.0249,-0.0255,-0.024,-0.0238,-0.026,-0.025,-0.025,-0.0219,-0.022,-0.0207,-0.0205,-0.0208,-0.0205,-0.0204,-0.0174,-0.0174,0,0,0,-0.0254,-0.0255,-0.0253,-0.0239,-0.0242,-0.0251,-0.025,-0.0222,-0.022,-0.0205,-0.0208,-0.0204,-0.0204,-0.0174,-0.0174,-0.0213,0,0,0,-0.0254,-0.0259,-0.0253,-0.0257,-0.0243,-0.0238,-0.0254,-0.0223,-0.0219,-0.0208,-0.0204,-0.0203,-0.0174,-0.0174,-0.0212,-0.0239,0,0,0,-0.0255,-0.0259,-0.026,-0.0257,-0.0258,-0.0239,-0.0235,-0.0222,-0.0221,-0.0205,-0.0203,-0.0174,-0.0174,-0.0212,-0.0237,-0.0226,0,0,0,-0.026,-0.0275,-0.0261,-0.028,-0.0258,-0.0265,-0.0236,-0.0236,-0.0227,-0.0204,-0.0174,-0.0174,-0.0211,-0.0236,-0.0225,-0.0213,0,0,0,-0.0282,-0.0278,-0.029,-0.0278,-0.0297,-0.0264,-0.0273,-0.0247,-0.0217,-0.018,-0.018,-0.0213,-0.0237,-0.0226,-0.021,0,0,0,0,-0.03,-0.031,-0.0313,-0.0322,-0.0315,-0.0306,-0.0279,-0.0256,-0.0224,-0.0212,-0.0201,-0.0214,-0.0206,-0.0196,-0.0173,-0.0173,-0.0173,-0.0173,-0.0173,-0.0333,-0.0335,-0.036,-0.036,-0.0358,-0.0332,-0.0315,-0.0274,-0.0246,-0.0233,-0.0238,-0.0246,-0.0236,-0.0221,-0.0221,-0.0222,-0.0222,-0.0222,-0.0222,-0.0377,-0.0394,-0.0394,-0.042,-0.0402,-0.0401,-0.0347,-0.0319,-0.0278,-0.0258,-0.0247,-0.0228,-0.0226,-0.0225,-0.0224,-0.0224,-0.0224,-0.0223,-0.0223,-0.0402,-0.0412,-0.043,-0.0462,-0.047,-0.0445,-0.0427,-0.0379,-0.0319,-0.0311,-0.0273,-0.0264,-0.027,-0.0298,-0.0298,-0.0298,-0.0298,-0.0298,-0.0298,-0.042,-0.0438,-0.0477,-0.0504,-0.0525,-0.0523,-0.0474,-0.0434,-0.0371,-0.0319,-0.0321,-0.0271,-0.0269,-0.0273,-0.03,-0.0299,-0.0299,-0.0299,-0.0299,-0.045,-0.0459,-0.0517,-0.0548,-0.0586,-0.0577,-0.0539,-0.0438,-0.0393,-0.0337,-0.0305,-0.0305,-0.0285,-0.0282,-0.0286,-0.0318,-0.0318,-0.0318,0,-0.0464,-0.0474,-0.0547,-0.0596,-0.062,-0.0603,-0.0535,-0.0474,-0.0386,-0.0381,-0.0402,-0.0372,-0.0369,-0.0353,-0.0349,-0.0358,0,0,0,-0.0481,-0.0503,-0.0552,-0.0603,-0.0633,-0.0555,-0.0512,-0.0471,-0.0401,-0.034,-0.0316,-0.0316,-0.0334,-0.0303,-0.027,-0.0267,-0.0272,0,0]}]]